Location: Seasalter
(51.3333°N, 1.0167°E)
Time: 04:07:28
(UTC+00:00)

COSMOS 2406 - Pass Details

Date: 26 September 2023
Orbit: 843 x 863 km, 71.0° (Epoch: 29 November)

Event Time Altitude Azimuth Distance (km) Brightness Sun altitude
Exits shadow 02:14:07 63° 75° (ENE) 964 3.5 -31.1°
Drops below altitude 10° 02:19:13 10° 34° (NE) 2,513 6.5 -30.5°
Sets 02:21:41 0° 32° (NNE) 3,453 7.5 -30.2°
